User: anonymous   Login
Location: Caltech
(34.1382°N, 118.1253°W)
Time: 08:46:55
(UTC-07:00)
Language:

ADEOS II - Orbit

View from above orbital plane
View from above orbital plane
View from above satellite
View from above satellite

Ground track
Ground track

The orbit data is extracted from the following two-line orbital elements,

1 27597U 02056A   17175.90345513 +.00000021 +00000-0 +25489-4 0  9999
2 27597 098.3697 145.1370 0000880 036.6183 323.5059 14.27290458756522
Epoch (UTC): 24 June 2017 21:40:58
Eccentricity: 0.0000880
inclination: 98.3697°
perigee height: 800 km
apogee height: 801 km
right ascension of ascending node: 145.1370°
argument of perigee: 36.6183°
revolutions per day: 14.27290458
mean anomaly at epoch: 323.5059°
orbit number at epoch: 75652

The dashed part of the orbit path shows where the satellite is in the earth's shadow,  

DLR